Wind_Speed
11 10 8 7 6 5 5 4 4 4 4 4 5 7 10 14 15 16 16 17 17 18 18 18 18 18 17 16 15 15 14 12 10 8 5 3 2 3 4 3 4 4 4 5
11 9 10 10 8 7 7 5 5 6 5 4 7 7 8 12 14 16 16 17 17 16 17 17 18 17 18 17 16 15 14 13 11 8 6 4 2 3 3 4 4 4 5 5
12 11 12 11 9 8 8 7 7 6 6 4 9 10 10 12 13 15 17 17 17 17 17 18 18 18 18 18 17 16 15 13 11 9 7 6 4 3 3 4 4 5 5 6
15 15 13 13 11 9 7 8 7 6 5 5 7 11 11 11 13 15 15 16 16 17 17 18 18 18 18 18 17 16 15 13 11 9 7 6 5 4 4 4 4 4 5 5
16 16 15 13 12 11 10 9 7 6 5 5 6 9 11 11 12 13 14 15 17 17 17 18 18 18 18 17 17 16 15 13 12 9 8 7 6 5 5 5 5 6 6 6
18 17 16 15 13 12 11 9 6 5 5 8 8 9 10 11 12 13 14 15 16 16 17 18 18 18 17 17 16 16 15 13 12 10 9 8 7 6 5 5 5 6 7 7
19 18 17 16 14 14 12 9 5 6 8 10 10 10 12 13 14 14 14 15 15 16 17 18 18 18 18 17 17 16 15 14 12 10 10 8 9 7 6 6 6 6 7 7
18 18 18 17 16 15 13 11 8 8 9 9 9 11 12 12 14 15 14 14 15 16 17 17 17 18 18 18 17 16 15 14 13 12 11 10 10 8 7 7 7 7 8 8
16 16 18 18 17 15 14 13 11 11 11 10 11 14 14 12 12 13 13 14 14 15 15 16 17 18 18 18 18 18 16 15 14 13 12 12 11 8 7 7 8 7 8 9
20 17 17 18 18 18 16 14 13 12 11 10 11 14 15 12 11 13 14 14 14 15 15 16 17 18 18 18 18 18 17 16 15 14 13 12 10 9 8 8 8 8 9 10
25 21 18 20 20 18 18 16 15 14 12 11 13 16 16 15 13 14 15 14 14 14 15 16 16 18 18 19 19 19 18 17 16 15 14 12 10 9 9 9 10 10 11 11
26 24 22 21 20 19 19 18 17 16 15 14 14 18 14 14 15 15 15 15 15 15 15 16 17 18 18 19 20 19 18 18 17 16 15 14 12 11 11 11 11 12 12 12
28 27 24 21 20 20 20 19 18 18 16 15 13 18 17 17 16 16 16 16 15 15 15 15 17 18 18 19 19 19 19 18 18 17 17 15 14 13 12 12 13 13 13 13
30 30 28 23 19 19 20 20 19 18 17 15 15 18 17 16 16 17 17 16 16 16 16 17 18 19 19 19 19 19 20 19 19 18 18 17 16 15 14 13 13 14 15 15
31 31 31 28 21 19 19 19 20 21 19 17 16 18 20 20 21 20 19 18 18 17 17 17 18 18 19 19 20 20 20 19 19 19 18 18 17 16 16 15 15 15 16 16
33 32 31 30 26 21 21 20 21 21 21 19 18 18 20 21 21 22 20 19 19 18 18 17 18 19 19 20 20 20 20 20 20 20 20 19 19 18 17 17 17 17 18 18
33 32 32 30 27 24 24 23 21 21 21 21 22 21 22 24 24 22 20 20 19 19 19 18 19 19 20 21 21 21 21 21 21 22 21 20 20 20 19 18 18 19 19 20
32 32 32 29 28 29 26 23 23 22 22 23 24 25 26 27 26 24 22 21 20 20 20 20 20 20 21 22 22 22 23 23 22 22 22 22 21 21 21 21 20 20 20 21
32 32 32 30 28 28 27 26 25 24 25 25 25 26 26 27 27 26 23 22 22 22 22 22 22 23 23 23 24 24 24 24 24 24 24 23 23 23 22 23 22 21 21 22
32 33 33 32 29 28 28 26 24 24 28 28 28 28 28 28 27 26 24 23 23 23 23 24 24 25 25 24 25 26 26 25 25 25 25 25 25 24 24 24 23 23 22 23
32 33 34 33 31 29 27 26 25 27 29 29 28 27 26 27 27 26 24 24 24 24 25 25 26 26 27 26 26 27 27 27 27 27 27 27 26 26 25 25 24 24 25 25
32 33 34 33 31 31 30 27 27 28 29 28 28 28 28 28 26 26 26 26 26 27 26 26 26 27 27 27 27 27 27 28 29 29 28 28 27 27 27 26 26 26 26 25
32 32 32 34 35 34 32 31 31 31 30 29 29 30 29 28 28 28 27 27 28 28 28 27 27 27 27 28 28 29 29 30 30 29 29 28 28 28 27 27 27 27 27 26
33 33 34 35 35 35 35 34 33 32 31 30 29 29 29 29 28 28 29 29 29 29 29 28 28 28 29 29 30 29 30 30 30 29 29 29 28 28 28 28 28 28 27 27
34 34 37 37 37 35 36 35 33 31 32 32 30 29 30 30 29 30 30 30 30 30 30 30 30 30 30 30 30 30 31 31 30 29 29 29 29 29 30 29 29 29 28 28
34 35 36 38 38 37 35 34 35 34 33 33 33 32 32 32 32 32 32 31 31 32 31 31 31 31 30 30 30 31 31 30 30 30 30 30 30 30 30 29 30 30 30 30
Wind_Direction
183 181 193 206 211 204 220 215 234 270 301 318 320 333 354 355 356 358 1 3 5 7 9 8 9 10 9 8 5 4 2 358 356 355 356 353 294 263 250 259 260 259 248 236
191 202 208 211 219 208 233 225 232 265 282 306 308 322 347 353 351 354 359 0 3 8 6 4 5 6 7 6 4 2 1 357 358 355 353 344 315 283 269 265 259 255 248 240
195 213 223 217 212 208 227 234 232 249 274 305 324 325 335 340 346 348 354 358 1 3 2 3 2 3 3 2 1 359 359 357 353 353 350 345 332 298 275 265 259 257 250 246
211 221 220 220 215 209 228 245 241 237 262 278 300 306 314 327 334 342 350 352 358 358 358 -0 359 359 0 1 0 360 358 359 354 348 345 340 322 293 274 267 263 265 258 254
219 223 221 222 217 215 215 232 249 242 227 258 282 298 306 315 324 332 340 345 353 354 354 357 357 357 359 359 359 358 357 358 358 351 346 340 329 311 294 281 270 268 266 263
216 227 225 222 222 219 221 221 240 262 256 263 275 278 288 299 314 326 332 342 348 350 352 355 357 357 357 357 355 355 357 357 357 355 350 348 339 323 309 294 281 274 268 264
220 225 228 225 222 222 222 211 225 262 267 260 267 269 282 299 310 318 328 338 344 348 351 352 355 356 355 354 353 354 357 356 354 351 347 345 343 330 312 303 294 288 282 272
229 233 231 229 223 220 221 211 217 243 266 269 262 252 276 295 305 314 324 333 338 343 347 347 350 352 352 352 353 354 354 354 352 350 344 337 331 325 319 313 308 300 294 286
220 239 239 233 225 221 217 213 218 244 267 274 263 261 272 288 300 310 319 325 332 337 340 342 346 349 351 352 352 352 350 350 349 346 342 335 330 325 321 316 308 304 297 293
207 219 234 238 229 225 222 224 224 229 245 261 269 267 279 286 294 307 315 322 328 332 334 336 342 345 348 351 351 351 350 346 343 339 337 334 330 327 323 318 314 308 304 302
211 215 224 235 234 229 227 223 226 230 226 244 267 272 272 279 282 300 307 316 322 325 329 332 340 341 343 346 347 347 347 347 344 339 336 332 326 322 319 318 316 313 308 308
217 217 221 234 239 234 231 228 229 229 229 233 257 277 276 283 282 294 304 309 315 318 321 328 335 335 338 341 342 343 344 343 342 340 337 331 325 322 320 317 314 311 311 308
219 219 218 224 232 237 233 234 233 232 233 239 251 273 278 280 282 290 298 303 308 311 315 320 326 330 333 335 338 339 339 340 340 339 337 331 325 319 316 317 315 311 309 307
222 221 218 219 228 239 242 235 231 230 233 242 250 264 270 274 280 289 292 299 303 306 309 316 320 324 326 328 330 332 334 336 337 336 334 333 328 323 318 317 317 315 313 310
222 223 221 215 214 225 241 241 233 231 227 234 247 262 271 276 277 282 290 296 300 303 304 309 315 319 320 321 323 326 329 331 333 333 333 333 331 325 321 317 314 313 312 310
223 222 221 219 216 219 229 235 234 233 229 230 238 252 261 268 274 279 285 290 295 299 301 302 307 313 315 317 318 322 326 327 328 331 330 328 326 322 318 314 312 311 310 308
226 225 224 223 220 224 227 228 233 236 234 233 235 246 256 262 269 275 282 286 291 294 297 299 302 306 310 313 315 316 317 321 323 324 324 324 323 321 319 315 311 311 310 307
225 226 226 223 222 226 228 230 232 234 235 236 237 241 252 261 268 274 279 284 287 290 293 295 298 302 304 308 310 311 313 314 316 317 318 318 318 318 316 314 312 310 309 307
224 225 224 220 223 229 229 229 230 232 234 236 239 242 250 259 267 273 277 280 283 286 288 290 293 298 300 303 306 307 309 311 311 311 312 311 313 314 313 312 311 310 309 307
223 224 223 220 220 228 233 233 231 233 238 238 240 246 250 257 263 270 276 280 283 285 287 289 291 294 295 298 301 304 306 307 309 309 308 307 307 308 309 310 310 310 310 309
222 224 223 221 221 228 231 231 232 233 237 241 243 248 251 257 262 266 272 277 282 285 287 289 289 291 293 296 299 300 302 303 304 305 305 305 304 305 305 306 306 307 307 307
224 225 224 222 221 229 231 229 232 236 239 243 245 247 252 257 262 268 271 275 280 284 286 288 289 289 291 294 296 298 299 301 302 302 302 301 302 303 303 304 304 305 305 305
220 220 221 222 222 227 232 234 237 241 243 244 246 250 255 258 263 269 273 277 279 282 285 287 287 288 290 292 293 294 296 298 299 299 298 298 299 300 300 301 302 301 303 304
222 218 217 221 223 226 230 235 238 241 243 245 249 251 255 260 264 269 272 275 277 282 284 285 286 287 288 290 290 292 295 295 295 297 297 296 297 298 298 300 302 303 303 303
222 221 221 222 226 227 229 233 237 240 243 246 250 254 258 262 265 268 272 276 279 282 284 284 286 287 287 289 289 291 294 295 296 296 296 296 297 297 299 300 301 302 302 301
218 220 222 224 226 228 231 234 237 243 246 249 253 258 262 265 267 269 272 275 279 281 283 284 286 287 288 290 290 292 293 293 293 294 295 295 296 297 298 300 300 301 301 302
Height
5934 5937 5939 5941 5943 5945 5946 5948 5949 5949 5947 5945 5944 5942 5940 5938 5935 5932 5929 5927 5924 5921 5919 5916 5913 5910 5908 5906 5904 5902 5900 5898 5896 5895 5894 5894 5894 5894 5895 5895 5895 5896 5896 5897
5935 5936 5939 5940 5942 5944 5946 5947 5948 5948 5946 5945 5942 5941 5940 5938 5936 5933 5930 5928 5925 5922 5920 5917 5914 5912 5909 5907 5904 5902 5900 5898 5897 5895 5894 5894 5894 5894 5894 5894 5895 5895 5896 5896
5933 5937 5937 5939 5941 5943 5945 5946 5946 5946 5945 5944 5943 5942 5939 5939 5936 5933 5931 5928 5925 5923 5921 5918 5915 5912 5910 5907 5905 5903 5901 5899 5897 5896 5894 5894 5894 5894 5894 5894 5894 5894 5895 5895
5930 5933 5935 5937 5939 5941 5944 5944 5944 5945 5945 5944 5945 5943 5939 5937 5936 5934 5931 5929 5926 5924 5921 5919 5916 5913 5910 5908 5905 5903 5901 5899 5897 5896 5895 5894 5894 5894 5894 5894 5894 5894 5894 5895
5928 5930 5932 5935 5937 5939 5941 5942 5942 5943 5943 5943 5944 5943 5939 5937 5935 5933 5931 5928 5927 5925 5922 5919 5917 5914 5911 5908 5906 5903 5901 5899 5898 5896 5895 5894 5893 5893 5893 5893 5893 5893 5893 5893
5925 5927 5930 5932 5935 5937 5939 5940 5941 5942 5943 5943 5943 5943 5939 5936 5935 5934 5931 5929 5928 5925 5922 5920 5917 5914 5912 5909 5906 5903 5901 5899 5898 5897 5895 5894 5893 5892 5892 5892 5892 5892 5892 5892
5922 5924 5927 5930 5932 5935 5936 5939 5941 5942 5942 5941 5942 5941 5938 5936 5935 5933 5930 5929 5928 5925 5923 5920 5917 5915 5912 5910 5907 5904 5902 5900 5898 5897 5895 5894 5893 5892 5892 5891 5891 5891 5890 5890
5920 5922 5924 5927 5929 5932 5934 5937 5940 5941 5941 5940 5940 5940 5938 5935 5935 5933 5930 5929 5927 5925 5922 5919 5917 5914 5912 5910 5907 5905 5902 5900 5898 5897 5895 5894 5893 5891 5891 5890 5890 5889 5889 5888
5919 5922 5923 5924 5926 5929 5931 5934 5937 5939 5938 5939 5937 5936 5934 5934 5934 5932 5930 5929 5926 5924 5922 5919 5916 5914 5912 5910 5907 5905 5903 5900 5898 5897 5895 5894 5892 5890 5889 5889 5888 5887 5887 5886
5914 5918 5920 5921 5923 5926 5929 5931 5934 5935 5937 5937 5937 5933 5932 5931 5931 5930 5929 5928 5926 5924 5922 5919 5917 5915 5912 5910 5907 5905 5902 5900 5898 5896 5894 5892 5891 5889 5888 5887 5886 5886 5884 5884
5909 5913 5917 5918 5919 5923 5925 5928 5929 5932 5934 5936 5935 5933 5930 5929 5928 5928 5927 5926 5925 5923 5921 5918 5915 5914 5912 5909 5907 5904 5902 5900 5898 5895 5893 5891 5890 5888 5887 5886 5885 5884 5883 5882
5903 5908 5912 5914 5917 5919 5922 5924 5927 5929 5930 5932 5932 5930 5926 5925 5925 5926 5925 5924 5923 5922 5920 5918 5916 5914 5912 5909 5906 5904 5901 5899 5897 5895 5892 5890 5889 5887 5886 5885 5884 5883 5881 5880
5898 5902 5907 5910 5915 5916 5917 5920 5923 5925 5927 5928 5930 5929 5925 5923 5923 5923 5923 5922 5921 5920 5918 5916 5915 5913 5911 5908 5906 5903 5901 5898 5896 5894 5892 5889 5887 5886 5885 5883 5882 5881 5879 5878
5892 5896 5902 5907 5910 5912 5913 5916 5919 5922 5924 5926 5926 5923 5922 5920 5920 5920 5920 5920 5919 5918 5917 5915 5913 5912 5909 5907 5905 5902 5900 5897 5895 5893 5890 5888 5886 5884 5883 5881 5880 5878 5877 5875
5885 5890 5894 5899 5904 5908 5910 5912 5914 5917 5920 5922 5922 5921 5919 5918 5917 5917 5917 5917 5916 5916 5915 5913 5912 5910 5907 5905 5903 5900 5898 5896 5893 5891 5889 5886 5884 5882 5880 5879 5877 5875 5874 5872
5878 5883 5888 5893 5898 5901 5905 5908 5910 5913 5915 5917 5918 5917 5916 5913 5913 5914 5915 5914 5914 5913 5912 5910 5909 5907 5905 5903 5901 5898 5896 5894 5891 5889 5887 5885 5882 5880 5878 5876 5874 5872 5871 5869
5872 5878 5883 5887 5893 5896 5899 5903 5906 5908 5910 5913 5913 5914 5911 5910 5910 5910 5911 5911 5910 5909 5908 5907 5906 5904 5902 5900 5898 5896 5894 5891 5889 5886 5884 5882 5879 5877 5875 5873 5871 5869 5867 5866
5867 5872 5876 5882 5887 5889 5895 5898 5901 5903 5905 5906 5907 5908 5907 5906 5905 5906 5907 5907 5906 5905 5904 5903 5902 5900 5899 5897 5895 5893 5890 5888 5886 5883 5881 5878 5876 5874 5871 5869 5867 5865 5863 5861
5860 5865 5870 5875 5880 5884 5888 5891 5894 5897 5898 5900 5901 5901 5902 5901 5901 5902 5903 5902 5902 5901 5900 5899 5898 5896 5895 5893 5891 5889 5887 5885 5882 5880 5877 5874 5872 5870 5868 5865 5863 5861 5859 5857
5855 5859 5864 5869 5873 5877 5882 5885 5887 5891 5891 5892 5894 5895 5896 5895 5896 5897 5897 5897 5897 5896 5895 5894 5893 5891 5889 5888 5886 5884 5882 5880 5877 5875 5873 5870 5868 5866 5863 5861 5859 5856 5854 5852
5848 5852 5856 5862 5867 5870 5874 5877 5880 5884 5885 5885 5887 5888 5890 5890 5891 5891 5891 5891 5891 5891 5890 5889 5887 5886 5884 5883 5881 5879 5877 5875 5873 5870 5868 5865 5863 5861 5858 5856 5853 5851 5849 5847
5841 5846 5851 5856 5861 5866 5866 5869 5872 5875 5876 5878 5879 5881 5883 5884 5884 5885 5886 5886 5886 5885 5884 5883 5882 5880 5879 5877 5875 5873 5871 5869 5867 5865 5862 5860 5858 5855 5853 5851 5848 5846 5844 5841
5834 5840 5844 5849 5854 5856 5859 5862 5864 5867 5870 5872 5873 5875 5877 5878 5879 5880 5880 5880 5879 5879 5878 5877 5876 5874 5873 5871 5869 5867 5865 5863 5861 5858 5856 5854 5852 5849 5847 5845 5842 5840 5838 5835
5826 5831 5836 5840 5844 5848 5852 5855 5857 5859 5863 5865 5866 5869 5870 5871 5873 5873 5873 5873 5872 5872 5871 5870 5869 5868 5866 5864 5862 5860 5858 5856 5853 5851 5849 5847 5845 5843 5840 5838 5836 5833 5831 5828
5818 5824 5828 5832 5836 5839 5843 5847 5850 5852 5855 5858 5860 5861 5863 5865 5866 5866 5866 5866 5865 5865 5864 5863 5862 5861 5859 5857 5855 5853 5851 5849 5847 5845 5842 5840 5839 5836 5834 5832 5829 5827 5824 5822
5810 5815 5821 5824 5829 5833 5837 5840 5843 5846 5849 5851 5854 5855 5856 5857 5858 5859 5859 5859 5858 5857 5856 5855 5854 5853 5851 5850 5848 5846 5844 5842 5840 5838 5835 5833 5831 5829 5827 5824 5822 5819 5817 5814